Cosmos 1992 Rocket - Orbit

View from above orbital plane
View from above orbital plane
View from above satellite
View from above satellite

Ground track
Ground track

The orbit data is extracted from the following two-line orbital elements,

1 19770U 89005B   13137.52706682  .00000194  00000-0  72780-4 0  8336
2 19770 074.0459 277.1281 0005225 353.4112 073.7830 14.38144937272076
Epoch (UTC): 17 May 2013 12:38:58
Eccentricity: 0.0005225
inclination: 74.0459°
perigee height: 761 km
apogee height: 768 km
right ascension of ascending node: 277.1281°
argument of perigee: 353.4112°
revolutions per day: 14.38144937
mean anomaly at epoch: 73.7830°
orbit number at epoch: 27207

The dashed part of the orbit path shows where the satellite is in the earth's shadow,  

Developed and maintained by Chris Peat, Heavens-Above GmbH. Please read the updated FAQ before sending e-mail. Imprint. DLR